[[{"header":{"parameterUnit":"m.s-1","parameterCategory":1,"la1":30.2991,"la2":30.254,"lo1":-89.0895,"lo2":-89.0444,"dy":0.0017,"dx":0.0017,"nx":28,"ny":28,"refTime":"2024-06-30T03:00:00:Z","depth":0,"parameterNumber":2,"parameterNumberName":"U-component_of_WINDS"},"data":[0,0,0,0,0,0,0,0,0,0,0,0,0,0,0,0,0,0,0,0,0,0,0,0,0,0,0,0,0,0,0,0,0,0,0,0,0,0,0,0,0,0,0,0,0,0,0,0,0,0,0,0,0,0,0,0,0,0,2.2403,2.2405,0,2.2592,2.2594,2.2597,2.2569,2.2565,2.2562,2.2559,2.2763,2.2771,2.2779,0,0,0,0,0,0,0,0,0,0,0,0,0,2.2028,2.2035,2.2403,2.2406,2.2408,2.2592,2.2595,2.2597,2.2569,2.2565,2.2561,2.2558,2.276,2.277,2.278,0,0,0,0,0,0,0,0,0,0,0,0,0,2.2202,2.2038,2.2403,2.2416,2.2419,2.2591,2.2595,2.2598,2.257,2.2565,2.256,2.2556,2.2757,2.2769,2.2782,2.2956,0,0,2.282,2.2826,0,0,0,0,0,0,0,0,2.2192,2.2216,2.2412,2.2415,2.2419,2.2552,2.2537,2.2718,2.2571,2.2513,2.2559,2.2553,2.2697,2.2714,2.2761,2.2966,2.2974,2.2821,2.2829,2.2834,2.2838,0,0,0,0,0,0,0,2.218,2.2207,2.2478,2.2415,2.2419,2.2416,2.2435,2.2571,2.263,2.2518,2.2516,2.2538,2.2698,2.2749,2.2765,2.2977,2.2821,2.2832,2.284,2.2845,2.3338,2.3343,0,0,0,0,0,0,2.2163,2.2198,2.2472,2.2484,2.2291,2.2426,2.2448,2.2514,2.2629,2.2641,2.2542,2.2536,2.2729,2.2751,2.2772,2.2986,2.2834,2.2846,2.2853,2.3332,2.3339,2.3345,0,0,0,0,0,0,2.2155,2.2188,2.2465,2.234,2.2375,2.2438,2.2513,2.252,2.2571,2.2647,2.2658,2.2582,2.2727,2.2755,2.291,2.2993,2.2852,2.2863,2.3326,2.3334,2.3342,2.3413,0,0,0,0,0,0,2.2144,2.2185,2.225,2.2342,2.2382,2.2597,2.2518,2.2528,2.2591,2.2585,2.2687,2.27,2.2725,2.2892,2.2923,2.3007,2.2873,2.3319,2.3329,2.3339,2.3404,2.3423,2.3439,0,0,0,0,0,2.2131,2.2264,2.2253,2.2286,2.2464,2.2601,2.2625,2.2648,2.2598,2.2665,2.2714,2.2697,2.2978,2.2908,2.2943,2.3032,2.3314,2.3326,2.3338,2.3396,2.3419,2.3439,0,0,0,0,0,0,2.2183,2.2276,2.2265,2.2431,2.2508,2.2596,2.2682,2.2671,2.2767,2.2758,2.2786,2.2809,2.2967,2.3015,2.2935,2.3208,2.3139,2.3159,2.3171,2.3194,2.3211,2.3198,2.2884,0,0,0,0,0,2.2213,2.2314,2.2391,2.2531,2.257,2.2619,2.268,2.2691,2.2773,2.2807,2.2867,2.2951,2.3058,2.3128,2.3231,2.341,2.3434,2.3489,2.3507,2.3521,2.3539,2.3639,2.3666,2.3385,2.3385,2.3385,0,0,2.2278,2.2342,2.2404,2.2543,2.2604,2.2711,2.2647,2.2763,2.2844,2.2825,2.2976,2.3023,2.3118,2.3287,2.3364,2.3332,2.3621,2.3537,2.3547,2.3558,2.3655,2.3681,2.3705,2.3394,2.3392,2.3391,0,0,2.2451,2.2508,2.2631,2.2693,2.2784,2.2816,2.2846,2.2936,2.2966,2.3116,2.3105,2.3203,2.3387,2.3455,2.3514,2.3713,2.3702,2.3746,2.384,2.3937,2.396,2.3979,2.4053,2.4079,2.3763,2.3764,2.3764,0,2.2522,2.2679,2.2696,2.2814,2.2876,2.2861,2.2988,2.3048,2.317,2.3216,2.3176,2.3407,2.347,2.3655,2.3704,2.3751,2.3789,2.3736,2.3954,2.3974,2.3993,2.4064,2.4091,2.3769,2.3768,2.3768,2.3767,0,2.2762,2.2871,2.296,2.3075,2.3148,2.3269,2.3308,2.338,2.3385,2.3422,2.3577,2.3652,2.377,2.3814,2.3821,2.4002,2.3979,2.3947,2.3879,2.4024,2.4091,2.4118,2.3776,2.3774,2.3772,2.3771,0,0,2.2975,2.3096,2.3129,2.3181,2.3281,2.3369,2.3491,2.3603,2.3665,2.375,2.3856,2.4011,2.3982,2.4049,2.4064,2.4149,2.4305,2.4107,2.411,2.4143,2.4511,2.4537,2.4567,2.4297,2.4302,2.4306,2.4504,0,2.3159,2.337,2.339,2.3581,2.3685,2.3672,2.3778,2.3853,2.3891,2.3987,2.4031,2.4141,2.4093,2.4133,2.4217,2.4268,2.438,2.4254,2.4399,2.4404,2.4377,2.4602,2.4629,2.4812,2.453,2.4535,2.4538,0,2.3402,2.3491,2.3692,2.3778,2.3822,2.3917,2.4023,2.4113,2.4199,2.4221,2.4295,2.4298,2.4428,2.4353,2.4533,2.4447,2.4508,2.4542,2.455,2.4566,2.4481,2.4627,2.4871,2.4899,2.4579,2.4575,2.4573,0,2.354,2.371,2.3852,2.3897,2.4001,2.4069,2.4116,2.4196,2.4263,2.4356,2.44,2.4508,2.4569,2.4654,2.4688,2.4629,2.4868,2.4795,2.4893,2.4893,2.4946,2.4943,2.5206,2.4981,2.4981,2.498,2.498,0,2.3745,2.3869,2.3915,2.4003,2.4143,2.4165,2.4304,2.4349,2.442,2.452,2.4516,2.4609,2.4647,2.4748,2.4776,2.4923,2.495,2.4974,2.498,2.4976,2.4973,2.5018,2.5007,2.4988,2.4986,2.4984,2.4983,0,2.3923,2.3958,2.4113,2.4198,2.4222,2.4322,2.4396,2.4483,2.4519,2.4644,2.4675,2.4734,2.4852,2.4893,2.5039,2.5057,2.5229,2.5223,2.5199,2.5201,2.5298,2.5289,2.5601,2.5644,2.5389,2.5391,2.5393,0,2.4052,2.4147,2.4241,2.4305,2.4354,2.4458,2.4525,2.4551,2.4623,2.4727,2.4803,2.4919,2.5015,2.5206,2.5263,2.5375,2.5374,2.5475,2.5391,2.5384,2.5379,2.5374,2.5385,2.5492,2.5495,2.5497,2.5498,0,2.4279,2.4292,2.4387,2.4489,2.4569,2.4652,2.4732,2.4786,2.4824,2.4905,2.5024,2.5098,2.5244,2.5362,2.5476,2.5528,2.5523,2.5524,2.5553,2.5551,2.5534,2.5547,2.5245,2.5518,2.5516,2.5514,2.5513,2.5512,2.4439,2.4523,2.4602,2.4709,2.4771,2.4846,2.4932,2.4978,2.5077,2.5196,2.5206,2.5336,2.5422,2.5573,2.5631,2.5735,2.5708,2.5749,2.5761,2.5771,2.578,2.5515,2.5756,2.5756,2.5755,2.5755,2.5754,0,2.4668,2.4718,2.4815,2.4926,2.5011,2.4992,2.508,2.5154,2.5267,2.5345,2.5438,2.5577,2.5691,2.5757,2.5872,2.5943,2.5943,2.5973,2.5969,2.5982,2.5796,2.5761,2.5971,2.5971,2.5971,2.5971,2.5971,2.5971,2.4797,2.4939,2.4961,2.5135,2.5185,2.5309,2.5361,2.5432,2.5495,2.5648,2.5742,2.5782,2.5857,2.5978,2.6083,2.61,2.6144,2.6177,2.6191,2.6017,2.5995,2.5974,2.5941,2.6185,2.6185,2.6369,2.6371,2.6372]},{"header":{"parameterUnit":"m.s-1","parameterCategory":1,"la1":30.2991,"la2":30.254,"lo1":-89.0895,"lo2":-89.0444,"dy":0.0017,"dx":0.0017,"nx":28,"ny":28,"refTime":"2024-06-30T03:00:00:Z","depth":0,"parameterNumber":3,"parameterNumberName":"V-component_of_WINDS"},"data":[0,0,0,0,0,0,0,0,0,0,0,0,0,0,0,0,0,0,0,0,0,0,0,0,0,0,0,0,0,0,0,0,0,0,0,0,0,0,0,0,0,0,0,0,0,0,0,0,0,0,0,0,0,0,0,0,0,0,2.9478,2.9479,0,2.9635,2.9637,2.9639,2.9643,2.9641,2.9639,2.9637,2.9798,2.9804,2.981,0,0,0,0,0,0,0,0,0,0,0,0,0,2.9179,2.9184,2.9477,2.9479,2.9481,2.9635,2.9637,2.9639,2.9643,2.9641,2.9639,2.9636,2.9796,2.9803,2.981,0,0,0,0,0,0,0,0,0,0,0,0,0,2.932,2.9186,2.9477,2.9502,2.9506,2.9635,2.9637,2.964,2.9644,2.9641,2.9638,2.9635,2.9794,2.9802,2.9811,2.9926,0,0,2.9839,2.9843,0,0,0,0,0,0,0,0,2.9312,2.9331,2.9496,2.95,2.9505,2.9617,2.9591,2.9736,2.9645,2.9591,2.9637,2.9634,2.974,2.9753,2.9789,2.9934,2.9941,2.984,2.9846,2.985,2.9852,0,0,0,0,0,0,0,2.9302,2.9324,2.954,2.9499,2.9504,2.9505,2.9522,2.9619,2.968,2.9596,2.9596,2.9615,2.9742,2.978,2.9793,2.9943,2.984,2.9848,2.9854,2.9857,3.0191,3.0194,0,0,0,0,0,0,2.9288,2.9316,2.9535,2.9545,2.9399,2.9513,2.9532,2.9584,2.9679,2.9691,2.9617,2.9615,2.9766,2.9782,2.9799,2.994,2.985,2.9858,2.9863,3.0187,3.0191,3.0195,0,0,0,0,0,0,2.9281,2.9307,2.9528,2.9431,2.9459,2.9521,2.9579,2.9588,2.9627,2.9695,2.9706,2.9646,2.9765,2.9786,2.9895,2.9946,2.9862,2.9871,3.0183,3.0189,3.0193,3.0224,0,0,0,0,0,0,2.9273,2.9305,2.9349,2.9432,2.9464,2.9622,2.9583,2.9593,2.9643,2.9641,2.9725,2.9736,2.9764,2.9881,2.9904,2.9957,2.9878,3.0179,3.0186,3.0192,3.0218,3.0229,3.0238,0,0,0,0,0,2.9262,2.9351,2.9351,2.9377,2.9521,2.9625,2.9644,2.9674,2.9647,2.9692,2.9736,2.9733,2.9936,2.9892,2.9918,2.9974,3.0176,3.0184,3.0191,3.0214,3.0227,3.0238,0,0,0,0,0,0,2.9272,2.9362,2.9363,2.9482,2.9546,2.9625,2.9683,2.9687,2.976,2.9755,2.979,2.9809,2.9917,2.9957,2.9906,3.0091,3.0053,3.0066,3.0062,3.0075,3.0084,3.0073,2.9885,0,0,0,0,0,2.9288,2.9365,2.944,2.9537,2.9569,2.9621,2.9667,2.9685,2.9753,2.978,2.9832,2.9898,2.9976,3.0027,3.0104,3.0224,3.0243,3.0276,3.0285,3.0293,3.0304,3.0372,3.0388,3.022,3.022,3.022,0,0,2.9321,2.938,2.9427,2.954,2.9592,2.9672,2.9643,2.9728,2.9788,2.9793,2.9899,2.994,3.0015,3.0131,3.0184,3.0167,3.0355,3.0303,3.0309,3.0316,3.0382,3.0398,3.0412,3.0225,3.0224,3.0223,0,0,2.9424,2.9476,2.9563,2.9616,2.9695,2.9729,2.975,2.983,2.9857,2.9964,2.997,3.0041,3.0176,3.023,3.0275,3.0399,3.04,3.0423,3.0475,3.0541,3.0554,3.0566,3.0611,3.0627,3.0433,3.0434,3.0434,0,2.9456,2.9576,2.9607,2.9693,2.9743,2.9752,2.9841,2.989,2.999,3.0024,3.0004,3.0174,3.0225,3.0354,3.0385,3.042,3.0446,3.0414,3.055,3.0562,3.0574,3.0617,3.0634,3.0436,3.0436,3.0435,3.0435,0,2.9612,2.9695,2.9756,2.9853,2.991,2.9997,3.0041,3.0095,3.0109,3.0145,3.0255,3.0317,3.0406,3.0438,3.0451,3.0569,3.0556,3.0542,3.0505,3.0591,3.0633,3.065,3.0439,3.0438,3.0438,3.0437,0,0,2.9724,2.9838,2.986,2.9905,2.9993,3.0059,3.0146,3.0234,3.028,3.0349,3.0423,3.0538,3.0526,3.0577,3.0597,3.0654,3.075,3.0633,3.0636,3.0654,3.0885,3.0896,3.0914,3.0751,3.0754,3.0756,3.0879,0,2.9837,2.9993,3.0024,3.016,3.0238,3.0248,3.0324,3.0387,3.0423,3.0495,3.0534,3.0616,3.0593,3.0624,3.0681,3.0726,3.0797,3.0717,3.0821,3.0824,3.0803,3.0936,3.0947,3.106,3.0895,3.0898,3.09,0,2.9989,3.0062,3.0206,3.0285,3.0319,3.0387,3.0471,3.0539,3.0611,3.0633,3.0691,3.0705,3.0796,3.0754,3.0882,3.0827,3.0871,3.0899,3.0905,3.0916,3.0868,3.0952,3.1096,3.1114,3.0926,3.0924,3.0922,0,3.0058,3.0193,3.0296,3.0334,3.0429,3.0477,3.0518,3.0587,3.0638,3.0712,3.0746,3.0828,3.0874,3.0937,3.0973,3.0939,3.1098,3.1059,3.112,3.1119,3.1154,3.1151,3.1308,3.1181,3.118,3.118,3.118,0,3.0181,3.0268,3.0329,3.0393,3.0491,3.0526,3.0623,3.0664,3.0726,3.0798,3.0811,3.0878,3.0921,3.0995,3.1024,3.1126,3.1146,3.1167,3.1173,3.1166,3.1164,3.1196,3.119,3.1185,3.1184,3.1183,3.1182,0,3.0275,3.0318,3.0432,3.0513,3.0536,3.0605,3.0674,3.0737,3.0773,3.0865,3.0888,3.0946,3.1033,3.1076,3.1184,3.1203,3.1319,3.132,3.1295,3.1298,3.1357,3.1352,3.1541,3.1569,3.1422,3.1423,3.1424,0,3.0351,3.0419,3.0507,3.0557,3.06,3.0679,3.0732,3.0769,3.0824,3.0911,3.0964,3.1052,3.1125,3.1264,3.1316,3.1399,3.1403,3.1464,3.1415,3.1407,3.1405,3.1401,3.1409,3.1473,3.1474,3.1475,3.1476,0,3.0481,3.05,3.0576,3.066,3.0723,3.0791,3.0857,3.0897,3.0945,3.1006,3.1096,3.1152,3.1264,3.1352,3.1439,3.1482,3.1488,3.1491,3.151,3.1503,3.1487,3.1498,3.132,3.1486,3.1485,3.1485,3.1484,3.1484,3.0569,3.0631,3.0703,3.0787,3.0842,3.0904,3.0967,3.1012,3.1088,3.1182,3.12,3.1296,3.1367,3.1484,3.153,3.1606,3.1592,3.1619,3.1626,3.1633,3.1637,3.1474,3.1622,3.1622,3.1621,3.1621,3.1621,0,3.0701,3.0749,3.0826,3.0919,3.0986,3.0986,3.106,3.1116,3.1201,3.1266,3.1338,3.1442,3.1528,3.1587,3.1674,3.1723,3.1728,3.1745,3.1742,3.1752,3.1643,3.1619,3.174,3.174,3.174,3.174,3.1739,3.1739,3.0778,3.0882,3.091,3.1041,3.1088,3.1183,3.1225,3.1283,3.1336,3.1452,3.1524,3.1561,3.1625,3.1717,3.1796,3.1811,3.1843,3.186,3.1875,3.1772,3.176,3.1748,3.1725,3.1866,3.1866,3.1978,3.1979,3.1979]}]]